AC7PD Weather Reports


Display with metric or nautical units.
time (UTC)temp
F
wind
direction
speed
MPH
gust
MPH
rain 1hr
in
rain 24hr
in
rain mn
in
humidity
%
barometer
mb
20260503183136 79 5 3.0 7.0 0.00 0.00 0.00 47 1013.1
20260503182136 78 236 3.0 5.0 0.00 0.00 0.00 48 1013.3
20260503180136 78 243 2.0 5.0 0.00 0.00 0.00 49 1013.3
20260503175136 77 300 2.0 3.0 0.00 0.00 0.00 49 1013.4
20260503174136 76 318 1.0 3.0 0.00 0.00 0.00 51 1013.5
20260503173136 75 349 2.0 3.0 0.00 0.00 0.00 51 1013.5
20260503172136 74 345 2.0 8.0 0.00 0.00 0.00 51 1013.6
20260503171136 73 331 5.0 5.0 0.00 0.00 0.00 52 1013.6
20260503170136 73 315 5.0 5.0 0.00 0.00 0.00 54 1013.7
20260503150136 58 147 0.0 0.0 0.00 0.00 0.00 85 1014.0
20260503140136 51 147 0.0 0.0 0.00 0.00 0.00 93 1013.9
20260503131136 49 149 0.0 0.0 0.00 0.00 0.00 92 1014.0
20260503130137 49 149 0.0 0.0 0.00 0.00 0.00 92 1014.0
20260503110136 52 256 0.0 1.0 0.00 0.00 0.00 90 1014.3
20260503100136 53 196 0.0 0.0 0.00 0.00 0.00 89 1014.4
20260503090136 54 196 0.0 0.0 0.00 0.00 0.00 88 1014.5
20260503081135 55 196 0.0 2.0 0.00 0.00 0.00 86 1014.7
20260503080136 56 196 1.0 3.0 0.00 0.00 0.00 85 1014.7
20260503072136 57 80 1.0 2.0 0.00 0.00 0.00 82 1014.5
20260503070136 58 80 1.0 1.0 0.00 0.00 0.00 80 1014.5
20260503060135 62 78 0.0 1.0 0.00 0.00 0.00 74 1014.1
20260503054136 63 78 1.0 2.0 0.00 0.00 0.00 69 1014.0
20260503053136 64 85 0.0 0.0 0.00 0.00 0.00 69 1014.0
20260503052136 64 85 0.0 0.0 0.00 0.00 0.00 67 1014.1
20260503051135 65 85 0.0 1.0 0.00 0.00 0.00 67 1014.0
20260503045136 66 69 0.0 2.0 0.00 0.00 0.00 61 1013.9
20260503044136 67 39 0.0 1.0 0.00 0.00 0.00 58 1013.8
20260503043135 68 5 0.0 1.0 0.00 0.00 0.00 56 1013.8
20260503042136 68 341 1.0 2.0 0.00 0.00 0.00 57 1013.7
20260503041136 69 26 1.0 2.0 0.00 0.00 0.00 57 1013.6
20260503040135 69 315 1.0 2.0 0.00 0.00 0.00 57 1013.4
20260503035136 70 357 1.0 3.0 0.00 0.00 0.00 57 1013.3
20260503034136 71 321 1.0 5.0 0.00 0.00 0.00 57 1013.1
20260503030136 74 315 0.0 3.0 0.00 0.00 0.00 53 1012.7
20260503025135 74 336 1.0 3.0 0.00 0.00 0.00 52 1012.6
20260503024135 75 335 0.0 2.0 0.00 0.00 0.00 51 1012.5
20260503023135 75 325 3.0 3.0 0.00 0.00 0.00 50 1012.5
20260503022136 76 358 3.0 3.0 0.00 0.00 0.00 49 1012.4
20260503020136 77 14 1.0 5.0 0.00 0.00 0.00 48 1012.4
20260503015136 78 336 1.0 3.0 0.00 0.00 0.00 48 1012.4
20260503014136 78 322 2.0 3.0 0.00 0.00 0.00 47 1012.4
20260503013136 78 221 1.0 3.0 0.00 0.00 0.00 47 1012.4
20260503012135 78 325 2.0 6.0 0.00 0.00 0.00 47 1012.5
20260503011135 79 347 3.0 6.0 0.00 0.00 0.00 47 1012.4
20260503010136 79 290 3.0 8.0 0.00 0.00 0.00 46 1012.4
20260503003136 80 318 2.0 3.0 0.00 0.00 0.00 47 1012.5
20260503002136 79 325 2.0 5.0 0.00 0.00 0.00 47 1012.5
20260503001136 79 325 1.0 9.0 0.00 0.00 0.00 48 1012.4
20260503000135 79 335 3.0 6.0 0.00 0.00 0.00 48 1012.6
20260502235135 79 354 2.0 8.0 0.00 0.00 0.00 47 1012.6
20260502234136 79 292 3.0 9.0 0.00 0.00 0.00 47 1012.7
20260502233136 79 296 2.0 7.0 0.00 0.00 0.00 48 1012.9
20260502231136 80 305 4.0 8.0 0.00 0.00 0.00 48 1013.3
20260502230136 80 323 2.0 5.0 0.00 0.00 0.00 47 1013.4
20260502225135 79 342 3.0 6.0 0.00 0.00 0.00 48 1013.6
20260502224135 80 323 3.0 12.0 0.00 0.00 0.00 47 1013.8
20260502223141 80 319 5.0 8.0 0.00 0.00 0.00 46 1013.8
20260502222151 81 287 5.0 7.0 0.00 0.00 0.00 45 1014.0
20260502221142 80 283 4.0 5.0 0.00 0.00 0.00 45 1014.0
20260502220152 79 311 2.0 3.0 0.00 0.00 0.00 46 1014.0
20260502215200 79 329 3.0 6.0 0.00 0.00 0.00 47 1014.2